RH
36 25 25 28 34 37 41 40 44 50 67 74 73 74 74 76 76 62 62 68 58 66 56 59 70 72 75 77 78 79 81 79 77
54 60 46 28 32 34 40 41 45 51 64 71 72 68 75 74 75 72 61 71 70 60 68 58 68 70 73 73 75 77 85 79 85
52 54 62 54 28 32 36 37 40 45 55 68 70 70 70 69 68 72 70 66 74 68 67 66 75 73 72 72 74 75 81 77 79
50 45 66 88 68 28 32 35 38 41 47 63 68 68 70 70 69 65 67 67 66 72 67 74 71 71 72 73 73 75 80 80 76
33 42 60 75 80 51 30 34 36 40 42 46 59 66 69 69 69 68 65 65 67 69 71 69 75 74 75 73 72 74 77 77 66
30 43 49 56 58 52 29 31 36 35 40 40 47 61 62 64 66 68 67 67 63 68 71 74 65 73 76 75 72 74 75 77 75
13 32 52 44 38 42 30 34 39 40 37 37 40 50 56 64 66 64 64 68 67 68 71 72 72 72 74 73 72 70 69 73 76
16 16 23 19 25 36 36 40 43 42 38 40 39 48 53 60 65 65 67 68 70 65 68 71 73 74 73 73 68 58 70 70 73
46 20 16 22 27 32 42 42 44 44 43 41 43 51 52 59 66 69 69 70 71 73 71 72 74 75 74 74 60 68 75 71 67
62 39 27 38 34 33 63 77 66 45 46 43 48 53 54 60 66 70 71 70 71 75 75 73 77 76 75 76 74 76 77 78 62
62 57 42 42 34 38 43 83 85 39 42 53 54 56 58 60 63 67 70 72 73 74 73 75 76 76 77 76 72 82 81 80 67
78 78 60 46 40 40 50 47 46 45 41 49 51 56 58 61 60 66 69 73 74 72 72 74 74 73 77 79 76 87 84 84 70
61 80 57 58 56 54 51 51 44 46 43 48 54 53 56 58 62 64 70 72 75 73 72 72 67 70 73 78 77 91 88 83 62
58 61 68 64 65 66 65 59 50 55 52 49 51 52 52 61 64 66 70 75 74 75 74 72 76 74 72 75 77 78 92 90 70
67 67 72 74 77 78 73 72 63 62 64 57 57 59 59 63 66 59 57 77 77 76 77 80 80 80 74 67 74 91 98 92 86
70 74 81 79 84 85 84 83 83 78 67 65 62 66 67 66 68 67 67 74 79 76 79 74 76 70 73 67 64 70 93 96 93
77 81 86 80 82 86 91 87 82 81 83 75 68 64 73 69 71 72 69 64 69 71 72 74 70 69 68 67 63 60 66 81 86
87 89 90 86 88 92 89 89 87 81 82 83 67 67 66 68 65 73 73 66 70 69 68 67 68 63 61 62 62 57 66 74 74
92 92 90 91 89 91 92 84 88 86 84 90 85 70 65 62 61 65 67 67 81 99 96 100 93 98 66 80 94 100 99 98 92
92 90 90 92 91 90 93 94 90 89 86 86 91 94 79 63 66 61 69 70 73 76 93 100 100 100 100 100 99 100 100 100 100
Wind_Speed
11 29 24 24 26 24 25 24 24 23 24 22 21 18 18 13 12 9 8 7 5 3 6 9 11 9 10 9 6 6 4 4 4
15 7 7 23 25 23 24 23 24 24 24 23 22 22 18 16 12 12 10 8 5 5 5 1 13 11 9 8 8 7 8 5 6
11 8 17 23 22 23 22 23 21 22 22 23 22 21 17 16 17 15 10 10 7 8 6 6 10 12 10 8 7 6 7 6 6
21 21 13 14 16 20 22 21 21 22 21 22 21 21 20 18 17 17 15 10 12 9 9 6 6 6 8 9 8 7 6 7 5
23 19 23 17 25 31 23 23 22 23 22 21 22 20 19 19 18 18 17 15 12 12 12 10 7 8 6 7 8 8 8 9 8
18 23 27 28 28 26 26 24 22 22 23 23 21 20 20 19 19 19 19 18 16 15 13 10 11 9 10 8 9 8 9 9 10
10 22 26 24 23 25 25 25 22 21 22 21 21 22 21 21 22 21 19 18 19 15 16 15 13 11 11 11 11 10 10 11 10
10 11 7 14 11 8 19 21 21 20 19 21 21 20 22 22 19 18 18 18 18 18 16 15 15 14 13 13 12 11 12 11 11
28 7 1 7 7 9 14 11 19 19 19 19 19 20 21 18 19 18 18 18 17 17 17 17 16 16 15 14 12 15 16 14 11
18 24 10 13 14 9 10 13 15 19 18 17 18 17 17 18 18 19 20 18 18 17 18 16 17 17 16 16 16 15 18 19 13
13 26 17 13 13 14 4 15 30 19 17 16 15 17 16 17 18 19 19 19 18 18 16 17 16 16 17 16 14 16 15 17 15
12 14 27 16 13 13 12 13 13 10 14 20 18 15 18 17 19 17 19 20 20 17 16 16 16 16 17 17 15 18 18 13 11
13 12 19 21 19 17 16 14 15 12 13 15 20 20 17 16 16 18 19 19 18 16 16 16 14 17 17 17 16 15 19 16 11
13 14 17 19 18 15 17 15 14 15 14 15 16 17 16 15 16 18 16 16 15 15 16 15 15 16 14 15 16 16 19 20 14
13 13 15 18 16 14 18 13 10 16 16 16 11 15 16 16 16 13 14 17 15 15 15 15 14 15 13 12 14 16 15 19 20
13 11 11 13 13 13 15 18 16 14 14 13 12 8 17 16 15 15 14 16 16 13 15 14 14 12 12 11 11 12 18 20 21
10 11 10 13 15 14 15 16 16 15 15 13 12 12 14 14 15 15 15 11 13 13 13 13 12 13 12 12 10 10 11 11 11
9 8 10 9 12 12 15 16 15 16 16 16 11 13 13 13 12 13 14 14 13 13 14 14 14 12 12 10 11 12 11 14 12
7 7 9 9 10 12 13 15 15 17 16 16 14 6 9 11 11 12 12 13 6 11 4 10 12 7 11 4 10 8 7 5 16
6 7 11 12 9 10 11 13 14 16 17 16 15 10 6 9 11 11 12 13 11 9 3 8 7 9 10 7 12 12 11 10 13
Wind_Direction
222 174 182 184 182 185 185 186 181 179 176 182 183 187 197 198 201 208 218 242 195 199 201 182 173 170 168 184 188 198 179 192 216
156 280 303 188 184 186 184 188 185 183 179 183 187 192 186 197 203 207 207 221 213 197 242 83 156 170 174 183 184 197 165 222 207
167 158 261 280 181 186 185 190 186 186 182 186 188 187 192 191 198 199 208 210 222 209 220 219 170 176 179 182 193 191 179 219 189
176 169 179 262 296 193 189 185 189 187 188 181 187 191 193 194 193 202 204 209 203 201 220 219 176 177 173 178 196 198 189 220 249
169 159 156 157 242 256 182 185 189 188 187 191 189 191 191 196 196 195 200 211 201 207 203 214 193 183 191 190 194 202 201 207 233
152 161 160 183 203 239 182 182 187 188 190 192 186 189 195 195 198 197 201 200 214 198 205 201 210 191 195 198 201 209 206 205 212
245 171 181 191 201 221 180 176 182 187 189 188 190 187 194 200 199 200 201 198 200 207 196 203 207 213 202 205 203 211 213 205 207
269 228 263 235 226 163 180 168 177 182 188 189 188 192 193 199 201 202 199 202 199 204 204 201 205 207 211 205 207 209 212 216 210
339 261 187 352 358 221 126 234 172 183 189 188 190 192 194 193 193 194 204 203 202 199 206 203 203 207 211 208 210 206 200 203 218
343 336 25 20 355 42 31 59 293 177 190 193 189 195 190 190 189 195 199 201 202 204 202 205 206 207 209 212 213 206 201 200 210
329 335 352 358 344 344 62 124 250 226 187 194 199 193 192 189 191 192 195 199 206 205 202 206 208 210 212 212 213 203 202 203 209
359 343 328 334 333 329 330 322 315 316 197 190 198 201 198 192 191 191 192 198 203 203 205 205 211 212 214 215 218 197 201 185 208
7 343 327 322 325 320 306 293 293 285 287 195 198 202 202 197 188 193 195 197 199 199 204 210 209 217 216 216 216 201 200 190 215
358 347 321 320 307 299 289 274 257 260 260 266 204 202 201 190 194 196 191 193 196 199 204 206 212 217 220 218 214 215 195 195 210
348 346 337 325 314 311 302 328 275 229 240 246 263 191 194 200 195 192 193 190 195 200 202 208 211 212 217 218 218 210 197 193 207
336 351 335 330 320 346 353 348 346 329 228 227 238 240 189 195 188 192 194 193 195 197 201 206 209 213 210 218 211 214 197 192 202
322 344 344 339 346 5 358 345 339 350 340 302 201 225 190 188 186 189 196 197 193 198 199 202 206 210 209 208 222 214 195 200 203
315 332 332 339 354 2 1 340 340 351 347 339 230 201 184 185 186 185 193 207 198 201 205 204 202 204 209 201 208 217 229 181 191
300 341 326 336 5 6 356 341 341 351 352 350 346 202 182 189 188 188 196 199 172 33 155 143 184 164 194 103 109 107 87 100 193
336 356 348 333 359 358 354 339 339 345 350 353 347 341 253 202 205 197 194 197 183 173 77 47 56 120 114 130 136 116 100 96 89